Wind_Speed
11 11 13 15 17 20 22 24 26 28 30 32 35 37 40 43 44 46 48 50 50 50 48 47 48 50 53 56 58 60 60 61 62 62 62 61 59 56 54 53 52 50 50 51
12 14 16 18 20 22 23 25 26 29 31 34 37 40 43 45 46 48 49 50 49 48 47 47 50 52 56 58 60 61 62 63 63 63 62 60 58 55 53 52 52 51 49 49
14 15 17 19 21 23 24 26 29 32 34 36 38 42 45 46 47 49 50 50 49 47 47 49 52 55 58 60 62 63 64 63 62 61 59 55 52 50 49 48 49 49 48 48
15 17 18 21 22 24 25 28 30 33 36 38 40 42 46 49 49 50 51 50 48 47 48 51 54 57 59 61 62 63 63 61 59 57 54 50 46 45 43 43 44 46 47 47
18 19 20 23 24 26 28 29 32 35 38 40 42 42 45 47 48 49 51 50 48 48 50 52 55 57 59 60 62 62 60 58 56 53 48 43 40 38 38 38 39 42 43 45
20 22 24 25 26 28 30 32 34 37 40 43 45 46 47 48 49 50 51 50 49 50 51 53 55 57 58 60 60 59 57 54 51 47 41 37 33 30 31 33 35 37 39 41
21 22 23 25 27 30 32 34 36 38 41 44 47 50 51 51 52 52 52 50 49 50 51 53 54 56 57 58 57 56 53 50 47 42 36 30 25 22 22 25 29 32 34 36
21 22 24 25 28 30 32 34 36 38 41 44 47 49 51 51 52 52 51 49 49 49 50 52 53 55 56 55 55 53 50 47 43 38 31 25 20 16 15 18 22 26 30 32
22 23 24 26 28 30 32 34 36 39 41 44 47 49 51 52 52 52 51 49 48 48 49 50 52 53 54 53 52 50 48 45 40 35 29 24 19 13 10 13 17 20 24 27
22 23 25 27 29 30 32 34 37 40 42 45 47 50 52 52 52 52 51 49 47 47 47 48 50 52 52 52 51 48 45 42 39 35 30 25 19 12 6 7 12 16 19 23
22 24 26 28 30 31 33 35 37 40 43 45 48 50 52 52 51 51 51 48 46 46 47 47 48 50 50 50 49 46 42 40 38 34 31 27 21 15 8 3 5 10 15 19
24 26 27 29 31 32 33 35 38 40 43 46 48 49 51 52 51 51 51 48 46 45 45 45 47 48 49 48 47 44 40 37 36 34 31 27 23 18 13 7 1 4 9 14
25 27 28 30 31 32 34 36 38 40 43 45 47 49 51 52 51 50 50 48 45 43 44 44 45 46 47 46 45 42 38 36 33 32 30 27 24 20 15 10 5 0 5 9
26 28 29 30 32 33 35 36 38 41 43 46 47 49 50 51 51 50 49 47 44 42 42 42 43 44 45 45 43 41 38 35 33 30 29 27 24 21 17 12 8 3 2 6
27 28 30 31 33 34 36 37 39 42 44 46 47 48 49 50 49 48 48 47 44 42 40 40 41 42 43 43 42 40 36 34 33 30 28 26 23 21 18 14 10 6 1 3
29 30 31 33 34 36 37 39 40 42 45 46 47 47 48 48 49 48 47 46 43 40 38 38 39 40 41 40 40 39 36 34 32 30 28 26 23 21 19 15 12 8 4 1
30 31 33 34 36 37 39 40 41 43 45 46 47 46 46 46 47 46 45 45 43 39 37 36 36 37 38 39 38 38 36 33 31 30 28 26 25 22 19 17 15 11 7 5
33 34 35 37 38 39 40 41 42 44 46 47 47 46 46 45 45 44 43 42 41 39 36 34 33 34 35 36 36 36 35 34 31 29 28 27 26 23 21 19 16 14 12 9
36 37 37 38 39 39 40 42 43 44 45 46 47 46 45 44 44 43 42 40 39 36 33 31 30 31 32 33 33 33 33 32 31 29 27 27 26 24 23 21 18 16 15 14
39 39 39 39 39 40 40 42 43 44 45 45 46 45 44 43 42 41 40 39 38 35 32 29 28 28 28 29 30 31 31 31 30 29 28 26 25 24 24 23 21 20 19 18
40 40 40 40 40 39 40 41 42 43 45 45 45 44 43 42 41 40 38 37 36 35 32 28 26 24 24 25 26 27 28 28 28 27 27 26 26 24 23 23 22 21 21 22
41 41 41 40 39 38 38 39 41 43 45 45 44 43 42 40 40 39 37 35 33 32 30 27 24 22 21 21 22 23 25 25 26 26 25 25 25 25 23 23 24 24 23 24
43 42 40 38 37 37 38 39 41 43 45 45 44 42 41 40 38 36 35 33 32 31 29 26 22 20 18 18 18 19 20 22 22 22 23 23 23 24 24 24 24 25 25 25
44 42 39 37 36 37 38 39 41 44 45 44 42 41 40 39 38 36 34 32 30 29 28 25 22 18 16 15 15 15 15 17 18 19 19 20 20 21 21 22 22 23 23 23
45 43 40 38 38 39 40 41 42 44 44 43 41 40 39 38 36 35 33 31 29 27 26 24 21 17 14 13 12 11 11 12 13 15 15 16 17 17 18 18 19 19 20 20
46 43 41 40 40 40 41 42 43 43 43 41 39 38 38 37 35 34 32 30 27 26 25 23 21 17 13 11 10 9 8 8 9 10 11 12 12 13 14 15 16 16 16 17
47 44 42 41 41 41 43 43 42 41 40 38 37 36 36 35 34 33 31 29 27 24 23 22 20 17 13 11 9 8 6 5 5 6 7 7 8 9 10 11 11 12 13 13
Wind_Direction
345 344 342 341 339 339 339 336 333 333 333 332 331 330 328 327 327 327 326 325 324 323 322 321 320 319 318 316 314 311 308 305 302 298 293 289 284 278 272 266 261 256 253 251
341 342 341 339 338 339 339 337 336 337 337 336 335 333 331 331 331 330 329 329 327 326 324 323 322 321 320 318 316 313 310 307 303 300 296 291 284 277 270 264 259 254 250 248
330 334 335 334 336 339 340 339 339 340 340 338 337 336 334 334 333 332 332 331 330 328 327 326 325 324 322 321 319 317 313 310 307 303 299 292 284 276 269 263 256 250 245 243
323 328 332 334 337 339 340 340 340 340 340 340 341 340 337 336 335 334 334 333 332 331 329 328 328 327 326 325 323 321 318 314 311 307 302 294 286 277 268 259 252 246 242 239
323 329 332 334 335 336 338 340 339 339 341 342 342 342 339 337 336 336 336 336 335 334 332 331 330 330 329 328 327 325 322 319 316 313 306 298 288 277 266 256 248 243 239 237
324 329 332 333 333 334 336 339 339 340 342 342 342 342 342 341 339 339 339 338 337 336 334 333 333 333 333 332 331 331 329 326 324 321 314 306 294 279 265 252 244 239 236 234
323 327 328 329 330 333 335 336 338 340 341 342 342 343 343 343 343 342 341 340 339 337 336 336 336 337 337 337 337 338 337 335 333 330 325 316 304 286 267 249 239 236 231 230
321 325 327 328 330 331 332 334 336 338 340 342 343 343 344 344 344 343 342 341 340 340 339 339 340 341 342 342 343 344 344 343 342 340 338 332 319 298 270 247 237 233 228 225
321 324 325 327 328 330 331 333 335 337 339 342 343 344 345 345 345 344 343 342 341 342 342 342 343 345 346 347 348 349 350 351 352 352 351 347 340 321 280 246 235 230 224 221
319 321 323 325 327 329 331 332 334 336 339 342 344 345 346 346 346 345 344 343 343 344 344 345 346 348 350 351 353 354 355 358 0 0 0 360 358 350 319 259 233 224 218 217
318 320 323 325 327 329 331 332 334 336 339 342 344 345 346 346 346 346 346 345 344 345 346 347 348 350 352 354 357 358 359 2 5 6 7 8 10 10 4 328 226 215 212 214
319 321 323 325 327 329 331 332 333 336 339 341 343 345 346 346 347 347 347 346 346 346 347 349 351 353 355 357 359 0 2 4 6 9 11 14 16 18 20 25 57 199 206 209
319 321 323 325 327 329 329 331 333 335 337 340 342 344 345 346 347 347 347 347 347 347 349 351 352 354 357 358 1 2 4 6 7 10 13 15 18 21 23 26 29 122 200 204
318 320 322 323 325 326 328 330 332 334 336 338 341 343 344 346 347 347 348 348 348 348 350 352 354 356 358 360 2 4 6 7 9 10 13 16 20 22 23 23 21 20 210 210
316 318 319 321 323 324 326 328 330 333 335 337 339 341 343 344 346 347 348 349 349 350 351 353 355 357 359 1 3 5 7 8 9 11 13 15 18 19 20 22 22 21 2 215
312 315 317 319 321 323 325 327 329 331 333 334 336 339 341 343 345 346 347 349 350 350 351 353 356 358 0 3 5 7 9 10 11 13 14 15 17 19 22 24 24 21 14 282
310 313 315 317 319 321 323 325 327 329 330 332 334 337 340 342 344 346 347 348 349 350 351 353 356 358 1 4 6 8 11 13 15 17 18 19 22 24 26 27 28 29 35 52
308 311 313 315 317 319 321 322 324 326 328 331 333 335 338 341 343 345 346 348 348 349 351 352 354 357 1 4 7 10 13 14 16 19 22 24 26 29 31 32 36 44 55 71
304 307 309 312 314 316 317 319 321 324 327 330 332 334 336 339 342 344 345 347 348 349 350 351 352 356 360 4 8 11 14 16 19 21 23 25 29 32 34 39 48 57 65 75
300 303 306 309 311 312 314 317 320 324 326 329 331 333 336 338 341 342 343 345 347 349 350 350 352 355 359 3 7 12 16 19 22 25 28 31 34 38 41 47 54 61 70 79
298 301 303 306 307 308 311 315 320 324 327 329 331 333 335 337 339 341 342 343 345 347 349 350 350 352 356 1 7 13 18 22 25 29 33 37 39 42 47 54 62 68 75 81
297 299 302 305 304 306 309 313 319 323 327 329 330 332 334 337 338 339 340 341 343 345 347 348 348 348 351 357 4 13 18 24 28 33 37 41 45 48 54 62 68 74 80 85
296 299 301 303 304 304 305 308 315 321 324 327 329 331 333 335 336 337 337 339 341 343 345 346 346 345 347 351 358 8 17 24 30 35 40 44 49 54 60 66 72 77 82 86
293 296 298 299 302 302 301 303 311 317 321 324 326 329 332 334 334 335 336 337 338 341 343 343 343 342 342 346 351 1 12 22 29 34 39 45 50 55 61 66 73 79 85 89
291 293 294 296 298 298 298 301 307 313 317 320 324 327 330 332 333 333 334 335 336 338 340 341 341 339 337 339 345 352 4 16 26 33 37 42 50 56 62 68 75 81 87 93
287 289 291 292 292 292 294 298 304 309 312 316 320 324 328 330 331 331 332 332 333 334 337 338 339 338 334 331 332 339 347 1 15 27 35 42 50 58 66 72 79 84 90 97
283 286 287 288 288 290 293 296 300 304 308 313 317 320 324 327 328 329 330 331 331 331 333 336 336 335 330 323 319 323 327 329 347 10 26 39 51 60 69 76 82 89 96 101
Height
5837 5835 5832 5829 5826 5823 5820 5816 5811 5807 5801 5795 5788 5781 5773 5765 5757 5748 5739 5729 5719 5709 5699 5690 5682 5673 5664 5655 5645 5636 5627 5618 5611 5604 5599 5594 5590 5588 5587 5588 5590 5593 5596 5600
5835 5833 5830 5827 5824 5820 5816 5812 5808 5802 5797 5790 5782 5773 5765 5757 5748 5739 5729 5719 5709 5699 5689 5680 5671 5662 5651 5641 5629 5618 5608 5598 5588 5580 5573 5567 5563 5562 5562 5564 5567 5570 5575 5580
5833 5831 5828 5825 5821 5817 5813 5808 5803 5797 5792 5785 5778 5768 5758 5749 5740 5730 5720 5710 5699 5689 5680 5670 5660 5650 5638 5626 5614 5601 5589 5577 5566 5556 5548 5541 5538 5537 5538 5540 5544 5549 5555 5560
5831 5829 5825 5824 5818 5814 5810 5805 5799 5793 5786 5779 5772 5762 5751 5741 5731 5721 5711 5701 5691 5680 5671 5660 5650 5638 5625 5612 5599 5584 5570 5557 5545 5534 5525 5519 5515 5514 5516 5519 5523 5529 5535 5543
5828 5824 5821 5818 5813 5809 5805 5801 5795 5788 5781 5773 5765 5758 5748 5737 5726 5715 5704 5693 5682 5671 5661 5651 5640 5627 5614 5600 5585 5570 5555 5541 5528 5516 5506 5500 5496 5495 5496 5500 5505 5512 5519 5526
5824 5820 5816 5814 5809 5804 5801 5796 5789 5782 5774 5766 5758 5750 5742 5731 5719 5708 5696 5684 5674 5664 5653 5643 5631 5618 5604 5589 5574 5558 5542 5527 5514 5501 5491 5484 5480 5479 5481 5484 5490 5497 5505 5512
5820 5816 5814 5810 5805 5801 5796 5791 5783 5776 5769 5761 5751 5742 5732 5721 5710 5699 5688 5677 5667 5657 5646 5635 5623 5610 5596 5580 5565 5549 5533 5518 5504 5492 5482 5475 5471 5469 5470 5473 5479 5485 5493 5501
5816 5813 5812 5806 5801 5797 5793 5786 5779 5772 5764 5756 5747 5737 5727 5716 5704 5693 5683 5672 5662 5651 5640 5628 5616 5603 5589 5574 5558 5542 5527 5513 5499 5487 5478 5471 5466 5464 5464 5467 5472 5477 5484 5491
5813 5811 5806 5801 5797 5793 5787 5781 5775 5768 5760 5751 5742 5732 5721 5710 5699 5688 5677 5667 5657 5646 5635 5623 5611 5598 5584 5569 5554 5539 5525 5511 5498 5487 5478 5471 5465 5462 5462 5464 5467 5472 5477 5484
5809 5805 5802 5797 5793 5788 5782 5776 5769 5762 5754 5745 5736 5726 5716 5705 5695 5684 5673 5662 5652 5642 5631 5619 5607 5594 5580 5566 5552 5538 5525 5512 5500 5490 5481 5473 5467 5464 5462 5463 5465 5469 5474 5480
5804 5801 5797 5793 5788 5783 5777 5770 5764 5756 5748 5739 5731 5721 5711 5701 5691 5680 5669 5658 5648 5637 5627 5616 5604 5592 5578 5565 5551 5538 5526 5515 5504 5494 5485 5477 5471 5467 5465 5464 5465 5468 5472 5477
5800 5796 5792 5788 5782 5777 5771 5765 5759 5751 5743 5735 5726 5717 5707 5697 5687 5676 5665 5655 5644 5634 5624 5613 5602 5590 5577 5565 5552 5540 5528 5518 5508 5499 5491 5483 5477 5473 5470 5468 5468 5470 5472 5475
5795 5791 5787 5782 5777 5772 5766 5760 5754 5747 5739 5731 5722 5713 5703 5693 5683 5673 5662 5651 5641 5632 5621 5611 5600 5589 5577 5565 5553 5542 5531 5521 5512 5504 5496 5489 5483 5478 5475 5473 5472 5472 5473 5475
5789 5786 5782 5777 5772 5767 5762 5756 5749 5742 5734 5726 5717 5708 5699 5689 5679 5670 5660 5649 5639 5629 5619 5609 5599 5589 5578 5566 5555 5544 5534 5525 5516 5508 5501 5494 5488 5484 5480 5477 5475 5474 5475 5476
5784 5781 5777 5772 5767 5762 5757 5751 5744 5737 5729 5721 5713 5704 5695 5686 5676 5667 5657 5647 5636 5627 5618 5608 5599 5589 5579 5568 5557 5547 5538 5528 5520 5512 5505 5499 5493 5488 5484 5481 5478 5477 5476 5476
5779 5776 5771 5767 5762 5757 5751 5745 5739 5732 5724 5717 5709 5700 5691 5682 5672 5663 5653 5644 5635 5626 5617 5608 5599 5590 5580 5570 5560 5551 5541 5532 5524 5516 5509 5503 5497 5492 5488 5484 5481 5479 5477 5477
5773 5769 5765 5761 5756 5751 5745 5739 5733 5726 5719 5711 5703 5695 5687 5678 5669 5660 5651 5641 5632 5624 5616 5607 5599 5591 5582 5573 5564 5554 5545 5536 5528 5521 5514 5508 5502 5496 5492 5488 5484 5481 5479 5478
5766 5762 5758 5754 5749 5744 5738 5732 5727 5720 5713 5706 5698 5690 5682 5674 5666 5657 5649 5640 5631 5622 5614 5607 5600 5592 5584 5576 5567 5558 5550 5541 5533 5526 5519 5513 5507 5501 5496 5492 5488 5485 5482 5481
5759 5755 5751 5747 5742 5737 5731 5726 5720 5714 5707 5700 5692 5684 5677 5669 5661 5653 5645 5638 5630 5622 5614 5607 5600 5593 5586 5579 5571 5563 5555 5547 5539 5532 5525 5519 5513 5507 5502 5498 5494 5491 5489 5487
5750 5746 5742 5738 5734 5729 5724 5719 5713 5707 5701 5694 5687 5679 5672 5664 5657 5650 5642 5635 5628 5620 5613 5607 5600 5594 5588 5581 5574 5567 5560 5552 5545 5538 5532 5526 5520 5515 5510 5505 5501 5499 5497 5495
5740 5737 5733 5729 5725 5721 5716 5711 5705 5700 5694 5687 5681 5674 5667 5660 5653 5646 5639 5632 5625 5618 5612 5605 5600 5595 5589 5584 5578 5571 5565 5558 5552 5545 5540 5534 5528 5523 5518 5514 5510 5508 5506 5505
5730 5727 5724 5720 5716 5712 5708 5703 5698 5693 5687 5681 5675 5668 5662 5655 5649 5642 5635 5630 5623 5617 5611 5605 5599 5595 5590 5585 5580 5575 5569 5564 5558 5553 5547 5542 5537 5532 5527 5523 5520 5518 5516 5516
5719 5716 5714 5711 5707 5703 5699 5695 5690 5686 5680 5675 5669 5663 5657 5651 5645 5639 5633 5626 5621 5615 5609 5603 5598 5594 5590 5586 5582 5578 5573 5568 5564 5559 5555 5550 5546 5542 5538 5534 5531 5529 5527 5526
5707 5705 5703 5701 5697 5694 5691 5686 5682 5678 5673 5668 5663 5657 5652 5646 5640 5634 5628 5623 5617 5612 5607 5602 5597 5593 5589 5586 5583 5579 5576 5572 5568 5565 5561 5557 5554 5550 5547 5545 5542 5540 5539 5538
5696 5694 5692 5691 5688 5685 5681 5677 5674 5670 5666 5661 5656 5651 5646 5641 5635 5630 5624 5619 5614 5609 5605 5600 5595 5591 5588 5585 5583 5580 5578 5575 5572 5569 5566 5563 5560 5558 5556 5554 5552 5550 5549 5549
5683 5682 5681 5680 5678 5675 5671 5668 5665 5662 5658 5655 5650 5645 5640 5635 5630 5625 5620 5615 5610 5606 5602 5597 5593 5589 5586 5584 5582 5580 5578 5576 5574 5572 5570 5568 5566 5564 5562 5561 5560 5559 5558 5558
5670 5670 5670 5669 5667 5664 5661 5659 5656 5654 5651 5647 5643 5639 5634 5630 5625 5620 5615 5611 5607 5603 5599 5595 5590 5587 5584 5582 5580 5579 5578 5576 5575 5574 5572 5571 5569 5568 5567 5566 5565 5565 5565 5565